Regional Weather Roundup
Issued by NWS Wakefield, VA

Home | Current Version | Previous Version | Text Only | Print | Product List | Glossary Off
Versions: 1 2 3 4 5 6 7 8 9 10 11 12 13 14 15 16 17 18 19 20 21 22 23 24 25 26 27

000
ASUS41 KAKQ 271515
RWRAKQ

REGIONAL WEATHER ROUNDUP
NATIONAL WEATHER SERVICE WAKEFIELD VA
1100 AM EDT TUE SEP 27 2016

Note: "fair" indicates few or no clouds below 12,000 feet with no
significant weather and/or obstructions to visibility. * = Denotes
station may not report precipitation (e.g., rain,snow,etc.),
thunder or fog.

VAZ042-051-052>054-056-271600-
NORTHERN VIRGINIA

CITY           SKY/WX    TMP DP  RH WIND       PRES   REMARKS
WASH NATIONAL  CLOUDY    67  58  72 N7        30.00S
DULLES         PTSUNNY   67  49  52 N7        29.99F
FORT BELVOIR   CLOUDY    66  56  70 VRB2      29.99S
QUANTICO       CLOUDY    68  56  65 NE6       30.00S
FREDERICKSBRG* CLOUDY    67  67 100 E6        29.98F
STAFFORD*      CLOUDY    66  63  90 NE7       30.03S
WARRENTON      CLOUDY    69  51  52 NE7       29.98F
CULPEPER*      PTSUNNY   69  56  62 NE5       30.00F
MANASSAS*      PTSUNNY   66  52  59 NE5       29.99F
LEESBURG*      CLOUDY    68  50  52 CALM      30.00F
WINCHESTER     SUNNY     68  46  45 CALM      30.00S
FRONT ROYAL*   FAIR      66  54  63 CALM      29.99S
LURAY*         FAIR      68  59  73 E5        30.00R
$$

VAZ048-049-060>072-079>083-271600-
CENTRAL AND SOUTH CENTRAL VIRGINIA

CITY           SKY/WX    TMP DP  RH WIND       PRES   REMARKS
RICHMOND       LGT RAIN  68  67  96 NW5       29.98S FOG
CHESTERFIELD*  CLOUDY    68  54  60 NW5       29.99F
PETERSBURG*    CLOUDY   N/A N/A N/A CALM      29.99S
HANOVER        CLOUDY    70  66  87 CALM      29.99F FOG
TAPPAHANNOCK*  RAIN      69  69 100 CALM      29.99S
QUINTON*       CLOUDY    69  68  99 CALM      29.97F FOG
CHARLOTTSVILLE CLOUDY    70  63  78 VRB5      29.98F
GORDONSVILLE*  NOT AVBL
ORANGE*          N/A     68  55  64 CALM      30.01S
LOUISA*        CLOUDY    70  64  83 E5        29.99S
BUMPASS*       CLOUDY    66  65  97 NE5       30.00R
FARMVILLE*     CLOUDY    72  69  91 CALM      29.97F
CREWE*         CLOUDY    69  69 100 CALM      29.99R
FORT PICKETT*  CLOUDY    69  68  98 W5        29.99S
CHASE CITY*    CLOUDY    68  66  94 CALM      30.00S
CLARKSVILLE*   CLOUDY    68  68 100 CALM      29.99S
SOUTH HILL*    CLOUDY    69  68  98 CALM      30.05S
LAWRENCEVILLE* CLOUDY    70  69  98 SW3       29.99S
EMPORIA*       LGT RAIN  70  68  94 CALM      29.99S
$$

VAZ088>098-271600-
SOUTHEAST VIRGINIA

CITY           SKY/WX    TMP DP  RH WIND       PRES   REMARKS
NORFOLK        CLOUDY    74  68  81 W3        29.98R
VIRGINIA BEACH CLOUDY    74  65  73 SW7       29.98R
NORFOLK NAVAL  LGT RAIN  74  67  78 W7        29.99S
WEST POINT*    CLOUDY    70  68  94 W5        29.99S
SALUDA*        CLOUDY    70  69  98 CALM      29.98S
NEWPORT NEWS   CLOUDY    74  67  78 SW5       29.98S
LANGLEY AFB    CLOUDY    73  68  83 SW6       29.97S HAZE
FORT EUSTIS    CLOUDY    75  67  77 W3        29.96S
WILLIAMSBURG*  PTSUNNY   73  68  83 W5        29.99S
HR EXEC AP*    PTSUNNY   73  68  83 W3        30.00R
FRANKLIN*      CLOUDY    74  67  80 SW3       29.99S
US460-WAKEFLD  CLOUDY    73  66  78 W6        29.98S
$$

VAZ020-022-025-037-045-271600-
WEST CENTRAL AND SOUTHWEST VIRGINIA

CITY           SKY/WX    TMP DP  RH WIND       PRES   REMARKS
STAUNTON*      MOSUNNY   66  55  68 CALM      30.02F
WAYNESBORO*    FAIR      67  57  70 W6        30.00F
HOT SPRINGS VA SUNNY     58  51  78 W7        30.05S
LYNCHBURG      PTSUNNY   70  62  76 CALM      30.00F
DANVILLE       CLOUDY    69  68  96 CALM      30.00S
SOUTH BOSTON*  CLOUDY    68  67  96 CALM      29.99S
MARTINSVILLE   CLOUDY    69  66  92 CALM      30.02F
ROANOKE        MOSUNNY   71  62  73 SW5       30.01F
BLACKSBURG     MOSUNNY   67  60  76 W3        30.06S
DUBLIN*        PTSUNNY   70  60  72 W6        30.04F
MARION*        CLOUDY    67  61  80 SW6       30.08S
HILLSVILLE*    CLOUDY    65  63  92 CALM      30.05S
RICHLANDS*     CLOUDY    59  56  91 CALM      30.07R
WISE*          CLOUDY    61  41  48 CALM      30.08S
ABINGDON*      CLOUDY    67  62  85 SW3       30.05S
$$

MDZ021>025-VAZ099-100-271600-
SOUTHERN MARYLAND AND THE DELMARVA PENINSULA

CITY           SKY/WX    TMP DP  RH WIND       PRES   REMARKS
PATUXENT RIVER RAIN      67  64  90 N3        29.98S FOG
BAY BRIDGE APT CLOUDY    68  64  88 MISG      29.98F
LEONARDTOWN    CLOUDY    64  63  94 CALM      30.01R
DOVER          LGT RAIN  66  66 100 NW5       29.97S
GEORGETOWN     LGT RAIN  68  66  93 NW3       29.98F
EASTON         CLOUDY    68  64  88 CALM      30.02R
CAMBRIDGE      CLOUDY    68  63  83 N3        29.97S
SALISBURY      CLOUDY    69  65  86 N5        29.97F
OCEAN CITY     LGT RAIN  69  64  84 CALM      29.97F
WALLOPS ISLAND CLOUDY    72  70  93 CALM      29.97F
ACCOMACK*      CLOUDY    73  69  85 CALM      29.97F
$$

NCZ012>017-030>032-271600-
NORTH CENTRAL AND EASTERN NORTH CAROLINA

CITY           SKY/WX    TMP DP  RH WIND       PRES   REMARKS
ROANOKE RAPIDS FAIR      72  66  83 CALM      29.99S
RALEIGH        PTSUNNY   76  67  73 VRB5      29.99F
ELIZABETH CITY CLOUDY    78  69  73 SW6       29.99S
AHOSKIE*       CLOUDY    71  68  89 CALM      29.99S
EDENTON*       CLOUDY    78  67  70 W5        30.00S
CURRITUCK*     CLOUDY    78  69  73 SW5       29.99S
KILL DEVIL HLS CLOUDY    79  72  80 CALM      29.99R
MANTEO         CLOUDY    77  69  78 S3        30.00R
CAPE HATTERAS  LGT RAIN  76  69  79 SE9       29.98F
TARBORO*       CLOUDY    73  69  85 CALM      30.00S
GOLDSBORO      CLOUDY    77  72  83 S2        29.97F
WASHINGTON     CLOUDY    74  69  83 W5        30.00S
GREENVILLE     CLOUDY    77  70  78 CALM      30.00F
NEW BERN       CLOUDY    81  68  64 VRB3      29.99S
WILMINGTON     CLOUDY    79  71  76 VRB3      29.97R
$$

VAZ048-271600-
ELSEWHERE

CITY           SKY/WX    TMP DP  RH WIND       PRES   REMARKS
HARRISBURG PA  SUNNY     67  54  63 NW8       29.98S
BALTIMORE      PTSUNNY   66  57  72 N6        29.99R
ANNAPOLIS      CLOUDY    68  63  84 CALM      29.98S
ANDREWS AFB    CLOUDY    65  55  71 N5        29.98F
PHILADELPHIA   CLOUDY    68  59  73 NW7       29.97F
HENDERSON NC   DRIZZLE   67  64  91 CALM      30.00S
GREENSBORO     CLOUDY    71  69  93 SW7       30.00S
ROCKY MOUNT    CLOUDY    75  69  81 CALM      29.99S
$$

VAZ100-271600-
MARINE

STATION/POSITION TIME  TEMP    WIND        PRES    WAVE   SWELL
                       AIR SEA DIR/SP/G            HT/PER HT/PER
                 (UTC) (F)     (DEG/KT/KT) (MB)    (FT/S) (FT/S)
BRANDYWINE LGT   1442   68     340/  7/ 12   N/A
CAPE MAY NJ      1442   68 72  320/  7/ 10 1014.3S
LEWES DE         1442   69 72  320/  9/ 11 1014.7R
OCEAN-CITY-INLET 1442   67 73  360/  3/  5 1015.2F
WACHAPREAGUE VA  1448   73 73  210/  4/  6 1015.0F
THOMAS POINT MD  1500   68 74  310/  7/  8 1016.6S
GOOSES REEF MD   1450   70      20/ 10/ 12 1015.7R
COVE POINT MD    1448   67      70/  6/  7 1015.8R
SOLOMONS ISLAND  1448   67 75  350/  5/  5   N/A
BISHOPS HEAD MD  1448   69 70   40/  5/  8 1015.3F
PINEY POINT MD   1448          360/  7/  7   N/A
POTOMAC MD       1450   69      40/ 10/ 12 1014.2R
CAMBRIDGE MD     1448   69 74  350/  5/  6 1014.3S
LEWISETTA VA     1448   69 74   40/  3/  4 1014.8R
RAPPAHANNOCK LGT 1448          250/  8/ 10 1015.7R
STINGRAY PT      1450   72     190/  6/ 10 1015.3R
YORK RVR RNG VA  1448   73     270/  7/  8 1014.6S
YORKTOWN VA      1448   73 76  240/  3/  5 1014.8R
JAMESTOWN VA     1450   72     280/  4/  6   N/A
DOMINION TERM VA 1448   72     220/  5/  7 1015.3S
KIPTOPEKE VA     1448      75  260/  9/ 10   N/A
CHES BAY BRIDGE  1448   74 76  250/  8/  9 1015.1R
CAPE HENRY VA    1448   74     220/  3/  5   N/A
WILLOUBY STN VA  1448   72     240/  9/ 10   N/A
CAPE HENRY BUOY  1412      75                N/A     3/ 5   2/13
1ST LANDING BUOY 1450   74     230/  6/  6 1015.1R
CAPE CHARLES BUO 1426      76                N/A     3/ 5
OFFSHORE WE BUOY 1421      75                N/A     3/ 5
64NM E OF VA BCH 1450   75 73  190/  6/  8 1015.7R   3/ 6   3/ 6
DUCK PIER NC     1448   77 76  190/  5/  8 1015.1R
44056 DUCK FRF   1441      76                N/A     3/13   2/13
OREGON INLET NC  1448   75 76  150/  6/  9 1015.7R
HATTERAS NC      1448   77 78  140/  7/ 13 1014.8F
DIAMOND SHLS NC  1450   78 84  150/ 16/ 19 1015.1F   3/ 6   2/ 9
CAPE LOOKOUT NC  1400   77     140/ 13/ 15 1014.3
$$




USA.gov is the U.S. government's official web portal to all federal, state and local government web resources and services.